Regional Weather Roundup
Issued by NWS Wakefield, VA

Home | Current Version | Previous Version | Graphics & Text | Print | Product List | Glossary On
Versions: 1 2 3 4 5 6 7 8 9 10 11 12 13 14 15 16 17 18 19 20 21 22 23 24 25 26 27
000
ASUS41 KAKQ 262115
RWRAKQ

REGIONAL WEATHER ROUNDUP
NATIONAL WEATHER SERVICE WAKEFIELD VA
500 PM EDT MON SEP 26 2016

Note: "fair" indicates few or no clouds below 12,000 feet with no
significant weather and/or obstructions to visibility. * = Denotes
station may not report precipitation (e.g., rain,snow,etc.),
thunder or fog.

VAZ042-051-052>054-056-262200-
NORTHERN VIRGINIA

CITY           SKY/WX    TMP DP  RH WIND       PRES   REMARKS
WASH NATIONAL  CLOUDY    70  58  65 S9        30.02F
DULLES         CLOUDY    68  58  70 S10       30.00F
FORT BELVOIR   CLOUDY    69  59  69 SE10      30.01F
QUANTICO       CLOUDY    71  61  70 S14       30.02F
FREDERICKSBRG* CLOUDY    70  62  76 SE10      30.00F
STAFFORD*      CLOUDY    69  62  77 S7        30.05F
WARRENTON      CLOUDY    69  56  61 S7        30.01S
CULPEPER*      CLOUDY    69  61  76 S5        30.03R
MANASSAS*      CLOUDY    68  61  77 SE9       30.01F
LEESBURG*      CLOUDY    70  61  73 S10G21    30.02S
WINCHESTER     CLOUDY    70  61  73 SE12G18   29.97S
FRONT ROYAL*   CLOUDY    70  63  78 S7        29.95F
LURAY*         CLOUDY    73  63  68 SW8       29.96F
$$

VAZ048-049-060>072-079>083-262200-
CENTRAL AND SOUTH CENTRAL VIRGINIA

CITY           SKY/WX    TMP DP  RH WIND       PRES   REMARKS
RICHMOND       CLOUDY    70  59  68 SE8       30.04F
CHESTERFIELD*  CLOUDY    72  52  49 S6        30.05F
PETERSBURG*    CLOUDY    73  62  68 SE3       30.04F
HANOVER        CLOUDY    70  59  68 VRB3      30.04F
TAPPAHANNOCK*  CLOUDY    71  56  59 SE5       30.05F
QUINTON*       CLOUDY    71  60  70 S5        30.04F
CHARLOTTSVILLE CLOUDY    70  62  76 S8        30.00F
GORDONSVILLE*  CLOUDY    70  63  78 S7        30.01F
ORANGE*          N/A     70  63  78 SE7       30.03S
LOUISA*        CLOUDY    72  64  78 S5        30.00F
BUMPASS*       CLOUDY    68  62  79 S3        30.02F
FARMVILLE*     CLOUDY    72  64  75 S8        30.02F
CREWE*         CLOUDY    70  64  80 S6        30.03F
FORT PICKETT*  CLOUDY    70  65  84 S6        30.04F
CHASE CITY*    CLOUDY    71  64  78 SE6       30.04S
CLARKSVILLE*   CLOUDY    72  64  78 CALM      30.03F
SOUTH HILL*    CLOUDY    71  65  82 SE3       30.09F
LAWRENCEVILLE* CLOUDY    71  65  83 CALM      30.04F
EMPORIA*       CLOUDY    73  63  68 SE5       30.05F
$$

VAZ088>098-262200-
SOUTHEAST VIRGINIA

CITY           SKY/WX    TMP DP  RH WIND       PRES   REMARKS
NORFOLK        PTSUNNY   74  62  66 S9        30.05F
VIRGINIA BEACH PTSUNNY   73  62  68 SE9       30.04F
NORFOLK NAVAL  PTSUNNY   74  60  61 S6        30.06F
WEST POINT*    CLOUDY    73  57  59 SE5       30.06F
SALUDA*        CLOUDY    71  59  66 SE5       30.05F
NEWPORT NEWS   CLOUDY    74  57  55 S5        30.05F
LANGLEY AFB    CLOUDY    74  58  56 S9        30.05S
FORT EUSTIS    CLOUDY    74  59  59 SE5       30.03F
WILLIAMSBURG*  SUNNY     75  61  60 S8        30.05F
HR EXEC AP*    CLOUDY    73  61  64 SE6       30.07F
FRANKLIN*      CLOUDY    73  63  70 SE3       30.06S
US460-WAKEFLD  CLOUDY    72  60  66 VRB3      30.05F
$$

VAZ020-022-025-037-045-262200-
WEST CENTRAL AND SOUTHWEST VIRGINIA

CITY           SKY/WX    TMP DP  RH WIND       PRES   REMARKS
STAUNTON*      CLOUDY    67  61  83 S8        30.02S
WAYNESBORO*    CLOUDY    67  62  84 SE8       30.00F
HOT SPRINGS VA HVY RAIN  51  51 100 S9        30.06S VSB<1/4
LYNCHBURG      CLOUDY    69  62  78 S9        30.03F
DANVILLE       MOSUNNY   73  65  75 S3        30.02F
SOUTH BOSTON*  CLOUDY    74  62  68 SE3       30.02F
MARTINSVILLE   PTSUNNY   74  69  84 CALM      30.05S
ROANOKE        LGT RAIN  68  67  96 SE6       30.03F FOG
BLACKSBURG     HVY RAIN  66  66  97 SE6       30.08R
DUBLIN*        CLOUDY    71  69  93 SE6       30.04F
MARION*        MOSUNNY   78  66  68 W12       30.07F
HILLSVILLE*    CLOUDY    68  67  99 S7        30.06S
RICHLANDS*     RAIN      67  67  97 S5        30.07R
WISE*          CLOUDY    70  66  88 W6        30.09S
ABINGDON*      LGT RAIN  69  64  83 CALM      30.04R
$$

MDZ021>025-VAZ099-100-262200-
SOUTHERN MARYLAND AND THE DELMARVA PENINSULA

CITY           SKY/WX    TMP DP  RH WIND       PRES   REMARKS
PATUXENT RIVER CLOUDY    71  56  58 S8        30.04F
BAY BRIDGE APT CLOUDY    70  57  64 MISG      30.04F
LEONARDTOWN    CLOUDY    70  55  60 SE6       30.06S
DOVER          CLOUDY    72  58  61 S8        30.04F
GEORGETOWN     PTSUNNY   72  54  53 S12       30.06F
EASTON         CLOUDY    72  55  56 SW7       30.08F
CAMBRIDGE      CLOUDY    70  54  56 S5        30.05S
SALISBURY      CLOUDY    72  56  57 S7        30.05F
OCEAN CITY     PTSUNNY   74  59  59 VRB7      30.06F
WALLOPS ISLAND CLOUDY    72  60  66 S8        30.07F
ACCOMACK*      CLOUDY    72  59  63 S9        30.06F
$$

NCZ012>017-030>032-262200-
NORTH CENTRAL AND EASTERN NORTH CAROLINA

CITY           SKY/WX    TMP DP  RH WIND       PRES   REMARKS
ROANOKE RAPIDS CLOUDY    72  63  73 CALM      30.05F
RALEIGH        CLOUDY    75  65  70 S6        30.04F
ELIZABETH CITY CLOUDY    75  64  68 E7        30.06F
AHOSKIE*       MOSUNNY   73  63  70 CALM      30.06S
EDENTON*       NOT AVBL
CURRITUCK*     CLOUDY    74  64  69 SE3       30.07F
KILL DEVIL HLS SUNNY     81  69  66 S5        30.05S
MANTEO         SUNNY     77  63  61 S7        30.07S
CAPE HATTERAS  SUNNY     81  62  52 SE12      30.06F
TARBORO*       MOCLDY    78  64  61 SE7       30.05F
GOLDSBORO      CLOUDY    81  66  60 SE5       30.02F
WASHINGTON     PTSUNNY   76  62  60 SE5       30.06S
GREENVILLE     CLOUDY    79  63  57 E8        30.07S
NEW BERN       PTSUNNY   78  64  61 E6        30.06F
WILMINGTON     SUNNY     79  66  64 E8        30.04S
$$

VAZ048-262200-
ELSEWHERE

CITY           SKY/WX    TMP DP  RH WIND       PRES   REMARKS
HARRISBURG PA  LGT RAIN  63  63 100 S8        30.02S FOG
BALTIMORE      CLOUDY    68  57  68 SE7       30.02F
ANNAPOLIS      CLOUDY    71  58  63 S9        30.03F
ANDREWS AFB    CLOUDY    68  58  71 SE8       30.02F
PHILADELPHIA   CLOUDY    71  50  47 S13       30.06F
HENDERSON NC   MOSUNNY   72  61  68 SE7       30.04F
GREENSBORO     CLOUDY    78  70  76 S8        30.02F
ROCKY MOUNT    PTSUNNY   76  65  68 VRB3      30.04F
$$

VAZ100-262200-
MARINE

STATION/POSITION TIME  TEMP    WIND        PRES    WAVE   SWELL
                       AIR SEA DIR/SP/G            HT/PER HT/PER
                 (UTC) (F)     (DEG/KT/KT) (MB)    (FT/S) (FT/S)
BRANDYWINE LGT   2000   70     170/ 16/ 19   N/A
CAPE MAY NJ      2000   70 73  170/ 10/ 13 1018.2F
LEWES DE         2000   71 72  140/  8/ 11 1018.3F
OCEAN-CITY-INLET 2000   72 72  180/  8/ 10 1019.1F
WACHAPREAGUE VA  2000   72 75  160/  8/ 14 1018.4F
THOMAS POINT MD  2100   71 74  180/ 18/ 19 1017.9F
GOOSES REEF MD   2100   72 75  210/ 14/ 17 1017.6F   2/ 3
COVE POINT MD    2000   70     210/ 14/ 17 1018.3F
SOLOMONS ISLAND  2000   71 76  160/ 10/ 12   N/A
BISHOPS HEAD MD  2000   71 71  170/ 12/ 13 1018.4F
PINEY POINT MD   2000          190/ 12/ 14   N/A
POTOMAC MD       2100   72 75  180/ 12/ 14 1016.4F   1/ 3
CAMBRIDGE MD     2000   71 75  180/  5/  9 1017.1F
LEWISETTA VA     2000   71 74  180/  9/ 10 1017.6F
RAPPAHANNOCK LGT 2000          150/ 11/ 13 1018.7F
STINGRAY PT      2100   73 76  110/ 14/ 16 1017.7F   2/ 3
YORK RVR RNG VA  2000   73     150/ 11/ 13 1017.4F
YORKTOWN VA      2000   74 77  150/  9/ 11 1017.5F
JAMESTOWN VA     2100   73 77  160/  8/ 10   N/A     0
DOMINION TERM VA 2000   74     150/  9/ 10 1017.8F
KIPTOPEKE VA     2000      76  180/ 10/ 12   N/A
CHES BAY BRIDGE  2000   73 76  140/  8/ 11 1018.1F
CAPE HENRY VA    2000   72     150/  5/  9   N/A
WILLOUBY STN VA  2000   74     140/  8/  8   N/A
CAPE HENRY BUOY  2012      76                N/A     3/ 9
1ST LANDING BUOY 2100   74 76  180/ 12/ 16 1017.1F   2/ 4
CAPE CHARLES BUO 2026      76                N/A     3/ 8
OFFSHORE WE BUOY 2021      76                N/A     3/ 8
64NM E OF VA BCH 2050   75 76  160/ 16/ 17 1017.7F   3/ 9   2/ 9
DUCK PIER NC     2000   76 77  100/ 10/ 12 1017.6F
44056 DUCK FRF   2011      77                N/A     3/ 9
OREGON INLET NC  2000   77 76  110/  6/  8 1018.0F
HATTERAS NC      2000   77 77  100/  6/  8 1017.9F
DIAMOND SHLS NC  2050   78 79  130/ 10/ 12 1017.7F   3/ 8   2/ 8
CAPE LOOKOUT NC  2100   77      90/ 10/ 11 1017.0F
$$




USA.gov is the U.S. government's official web portal to all federal, state and local government web resources and services.